Newport, NC

11:39 PM EST on February 20, 2017 (GMT -0500)
Bogue McAlf

Weather History for KNJM - July, 2013

Change the Weather History Date:

Saturday, July 6, 2013

  Actual Average (KNKT) Record (KNKT)
Temperature  
Mean Temperature 81 °F -  
Max Temperature 84 °F 85 °F 93 °F (2010)
Min Temperature 78 °F 68 °F 62 °F (2014)
Cooling Degree Days 16    
Growing Degree Days 31 (Base 50)    
Moisture  
Dew Point 71 °F    
Average Humidity 73    
Maximum Humidity 82    
Minimum Humidity 67    
Precipitation  
Precipitation 0.00 in - - ()
Sea Level Pressure  
Sea Level Pressure 30.25 in    
Wind  
Wind Speed 8 mph (SSW)    
Max Wind Speed 13 mph    
Max Gust Speed -    
Visibility 10 miles    
Events Rain    
Averages and records for this station are not official NWS values.
T = Trace of Precipitation, MM = Missing Value Source: NWS Daily Summary

Daily Weather History Graph

Daily Weather History Graph

Search for Another Location

Airport or City:

Trip Planner

Search our weather history database for the weather conditions in past years. The results will help you decide how hot, cold, wet, or windy it might be!

Date:

Astronomy

Jul. 06, 2013 Rise Set
Actual Time 6:01 AM EDT 8:24 PM EDT
Civil Twilight 5:31 AM EDT 8:53 PM EDT
Nautical Twilight 4:55 AM EDT 9:29 PM EDT
Astronomical Twilight 4:16 AM EDT 10:09 PM EDT
Moon 4:43 AM EDT (7/6) 7:06 PM EDT (7/6)
Length of Visible Light 15h 21m
Length of Day
14h 23m
Waning Crescent, 2% of the Moon is Illuminated
Jul 6
Waning Crescent
Jul 8
New
Jul 15
First Quarter
Jul 22
Full
Jul 29
Last Quarter

Hourly Weather History & Observations

Time (EDT) Temp. Heat Index Dew Point Humidity Pressure Visibility Wind Dir Wind Speed Gust Speed Precip Events Conditions
12:57 AM 79.0 °F - 72.0 °F 79% 30.28 in 10.0 mi SSW 9.2 mph - N/A   Partly Cloudy
1:40 AM 78.8 °F - 71.6 °F 78% 30.26 in 10.0 mi SSW 10.4 mph - N/A   Mostly Cloudy
1:47 AM 78.8 °F - 71.6 °F 78% 30.26 in 10.0 mi SSW 8.1 mph - N/A   Scattered Clouds
1:57 AM 79.0 °F - 72.0 °F 79% 30.27 in 10.0 mi SSW 6.9 mph - N/A   Partly Cloudy
2:57 AM 78.1 °F - 72.0 °F 81% 30.26 in 10.0 mi SSW 5.8 mph - N/A   Scattered Clouds
3:05 AM 78.8 °F - 71.6 °F 78% 30.24 in 10.0 mi South 5.8 mph - N/A   Mostly Cloudy
3:17 AM 78.8 °F - 71.6 °F 78% 30.24 in 10.0 mi SSW 5.8 mph - N/A   Scattered Clouds
3:57 AM 79.0 °F - 73.0 °F 82% 30.25 in 10.0 mi SSW 6.9 mph - 0.00 in Rain Light Rain
4:57 AM 78.1 °F - 72.0 °F 81% 30.25 in 10.0 mi SSW 5.8 mph - 0.00 in   Scattered Clouds
5:57 AM 78.1 °F - 72.0 °F 81% 30.26 in 10.0 mi South 5.8 mph - N/A   Scattered Clouds
6:11 AM 78.8 °F - 71.6 °F 78% 30.25 in 10.0 mi South 5.8 mph - N/A   Mostly Cloudy
6:57 AM 79.0 °F - 72.0 °F 79% 30.27 in 10.0 mi South 5.8 mph - N/A   Scattered Clouds
7:37 AM 80.6 °F 84.6 °F 71.6 °F 74% 30.27 in 10.0 mi South 8.1 mph - N/A   Mostly Cloudy
7:45 AM 80.6 °F 84.6 °F 71.6 °F 74% 30.27 in 10.0 mi South 8.1 mph - N/A   Scattered Clouds
7:57 AM 81.0 °F 84.9 °F 71.1 °F 72% 30.28 in 10.0 mi South 8.1 mph - N/A   Partly Cloudy
8:57 AM 82.0 °F 86.7 °F 72.0 °F 71% 30.29 in 10.0 mi South 6.9 mph - N/A   Partly Cloudy
9:57 AM 82.0 °F 86.3 °F 71.1 °F 69% 30.29 in 10.0 mi SSE 8.1 mph - N/A   Clear
10:57 AM 82.9 °F 87.5 °F 71.1 °F 67% 30.30 in 10.0 mi South 10.4 mph - N/A   Scattered Clouds
11:57 AM 82.9 °F 87.5 °F 71.1 °F 67% 30.29 in 10.0 mi South 9.2 mph - N/A   Clear
12:57 PM 82.9 °F 87.5 °F 71.1 °F 67% 30.29 in 10.0 mi South 8.1 mph - N/A   Clear
1:57 PM 82.9 °F 88.0 °F 72.0 °F 69% 30.27 in 10.0 mi South 8.1 mph - N/A   Clear
2:57 PM 84.0 °F 89.6 °F 72.0 °F 67% 30.25 in 10.0 mi South 10.4 mph - N/A   Clear
3:57 PM 84.0 °F 89.6 °F 72.0 °F 67% 30.23 in 10.0 mi South 8.1 mph - N/A   Clear
4:57 PM 82.9 °F 87.5 °F 71.1 °F 67% 30.22 in 10.0 mi South 9.2 mph - N/A   Partly Cloudy
5:57 PM 82.9 °F 87.5 °F 71.1 °F 67% 30.21 in 10.0 mi South 12.7 mph - N/A   Partly Cloudy
6:57 PM 82.0 °F 86.3 °F 71.1 °F 69% 30.20 in 10.0 mi South 8.1 mph - N/A   Clear
7:57 PM 81.0 °F 84.9 °F 71.1 °F 72% 30.20 in 10.0 mi SSW 8.1 mph - N/A   Partly Cloudy
8:57 PM 80.1 °F 83.6 °F 71.1 °F 74% 30.21 in 10.0 mi SSW 8.1 mph - N/A   Partly Cloudy
9:57 PM 80.1 °F 83.2 °F 70.0 °F 71% 30.22 in 10.0 mi SW 8.1 mph - N/A   Clear
10:57 PM 80.1 °F 83.2 °F 70.0 °F 71% 30.23 in 10.0 mi SSW 10.4 mph - N/A   Clear
11:57 PM 80.1 °F 83.2 °F 70.0 °F 71% 30.23 in 10.0 mi SW 8.1 mph - N/A   Partly Cloudy